Weather in Hulst

Netherlands     51°17′01″N   4°03′28″E
temp.,
°C
wind,
m/s
gust,
m/s
humid.,
%
clouds,
%
prec.,
mm/h
press.,
hPa
HPBL,
m
26 june, sun
sun2623:00+14s3695100 0.0 1012156
02:00+13ssw3896100 0.5 1012203
05:00+13ssw3795100 0.0 1013173
08:00+14ssw4785100 0.0 1014317
11:00+17ssw4661100 0.0 1016795
14:00+21ssw5747100 0.0 10151655
17:00+22ssw5740100 0.0 10152050
20:00+21wsw2353100 0.0 1014224
27 june, mon
mon2723:00+17n2365100 0.0 101551
02:00+17ssw3357100 0.0 101568
05:00+14ssw3382100 0.0 101544
08:00+16ssw357558 0.0 1016263
11:00+19wsw896467 0.9 10171096
14:00+21wsw3744100 0.9 10172174
17:00+19nnw4655100 0.1 1018470
20:00+19nw4456100 0.1 1019678
28 june, tue
tue2823:00+14w1170100 0.0 102111
02:00+12wsw34786 0.0 102158
05:00+10sw35875 0.0 102172
08:00+14sw24690 0.0 1021236
11:00+20ssw35460 0.0 10211075
14:00+24s45385 0.0 10192129
17:00+25s3534100 0.0 10172412
20:00+24ssw3644100 0.0 1016230
29 june, wed
wed2923:00+18ssw235793 0.0 101722
02:00+15s2268100 0.0 101614
05:00+15sse45715 0.0 101572
08:00+17ssw3566100 0.0 1016193
11:00+23ssw35415 0.0 1016950
14:00+27ssw45310 0.0 10152184
17:00+28ssw562827 0.0 10132428
20:00+20n5663100 0.0 1013216
30 june, thu
thu3023:00+16n35800 0.0 101469
02:00+16ene12770 0.0 101311
05:00+15ese11720 0.0 101211
08:00+20sse12595 0.0 1012152
11:00+26ssw124662 0.0 1011975
14:00+29ssw363970 0.0 10102240
17:00+20nw6677100 1.4 1009427
20:00+18w4690100 4.9 1010452